CAPE
0 0 0 0 0 0 0 0 0 0 0 0 0 0 0 0 0 0 0 0 0 0 0 0 0 0 0 0 0 406 1105 1567 1467 1351 1283 1340 1425 1389 1398 1452 1526 1520 1544 1506
0 0 0 0 0 0 0 0 0 0 0 0 0 0 0 0 0 0 0 0 0 0 0 0 0 0 0 0 0 16 949 1445 1437 1451 1531 1444 1480 1628 1739 2045 1870 1578 1467 1411
0 0 0 0 0 0 0 0 0 0 0 0 0 0 0 0 0 0 0 0 0 0 0 0 0 0 0 0 14 65 466 1242 1288 1331 1225 785 1024 1160 1760 2242 2268 1704 1608 1554
0 0 0 0 0 0 0 0 0 0 0 0 0 0 0 0 0 0 0 0 0 0 0 0 0 0 0 0 0 3 412 808 720 808 1191 1251 1303 1158 1004 1168 758 520 620 569
0 0 0 0 0 0 0 0 0 0 0 0 0 0 0 0 0 0 0 0 0 0 0 0 0 0 0 0 0 0 185 396 370 454 930 1105 772 747 411 418 466 450 560 555
0 0 0 0 0 0 0 0 0 0 0 0 0 0 0 0 0 0 0 0 0 0 0 0 0 0 0 0 0 12 229 183 190 229 320 512 518 410 339 327 330 229 248 351
0 0 0 0 0 0 0 0 0 0 0 0 0 0 0 0 0 0 0 0 0 0 0 0 0 0 0 0 0 57 145 119 143 167 218 292 507 564 582 524 295 255 177 178
0 0 0 0 0 0 0 0 0 0 0 0 0 0 0 0 0 0 0 0 0 0 0 0 0 0 0 0 0 0 0 0 0 0 0 0 10 31 83 312 189 129 79 68
0 0 0 0 0 0 0 0 0 0 0 0 0 0 0 0 0 0 0 0 0 0 0 0 0 0 0 0 0 0 0 0 0 0 0 0 0 0 9 79 102 46 77 12
0 2 0 0 0 0 0 0 0 0 1 0 0 0 0 0 0 0 0 0 0 0 0 0 0 0 0 0 0 0 0 0 0 0 0 0 0 0 0 0 1 17 38 20
2 3 0 0 0 0 0 0 0 0 0 1 0 0 0 0 0 0 0 0 0 0 0 0 0 0 0 0 0 0 0 0 0 0 0 0 0 0 0 0 0 0 0 0
0 4 11 0 0 0 0 0 0 8 0 0 0 0 0 0 0 0 0 0 0 0 0 0 0 0 0 0 0 0 0 0 0 0 0 0 0 0 0 0 0 0 0 0
0 1 1 0 0 0 0 0 0 0 0 0 9 0 0 0 0 0 0 0 0 0 0 0 0 0 0 0 0 0 0 0 0 0 0 0 0 0 0 0 0 0 0 0
0 0 2 8 0 0 0 0 0 0 0 0 0 0 0 0 0 0 0 0 0 0 0 0 0 0 0 0 0 0 0 0 0 0 0 0 0 0 0 0 0 0 0 0
0 0 0 0 0 0 0 0 0 0 0 0 0 0 0 0 0 0 0 0 0 0 0 0 0 0 0 0 0 0 0 0 0 0 0 0 0 0 0 0 0 0 0 0
0 0 0 0 0 0 0 0 0 0 0 0 0 0 0 0 0 0 0 0 0 0 0 0 0 0 0 0 0 0 0 0 0 0 0 0 0 0 0 0 0 0 0 0
0 0 0 0 0 0 0 0 0 0 0 0 0 0 0 0 0 0 0 0 0 0 0 0 0 0 0 0 0 0 0 0 0 0 0 0 0 0 0 0 0 0 3 7
0 0 0 0 0 0 0 0 0 0 0 0 0 0 0 0 0 0 0 0 0 0 0 0 0 0 0 0 0 0 0 0 0 0 0 0 0 0 0 5 10 13 16 18
0 0 1 2 1 0 0 0 0 0 0 0 14 20 12 0 0 0 0 0 0 0 0 0 0 0 0 0 0 0 0 0 0 0 0 0 0 2 6 7 8 8 19 19
0 0 6 2 3 0 0 0 0 0 0 0 0 9 14 1 35 37 0 0 0 0 0 0 0 0 0 0 0 0 0 0 0 0 0 1 5 5 9 3 7 11 3 4
8 2 12 7 15 1 0 0 0 3 0 1 1 13 19 28 26 0 0 0 0 0 0 0 0 0 0 0 0 0 0 0 1 4 6 8 8 8 12 10 14 11 11 13
1 5 9 14 8 3 0 0 16 13 4 12 39 48 5 0 0 0 0 0 0 0 0 0 0 0 0 0 0 0 1 4 8 15 18 14 5 15 18 13 12 15 17 14
3 0 2 0 0 0 0 22 34 54 19 27 45 45 7 1 0 0 0 0 0 0 0 0 0 0 0 0 1 5 5 10 24 16 8 11 14 13 12 17 15 11 12 11
0 0 1 0 0 0 9 20 48 45 47 69 47 12 0 0 0 0 0 0 0 0 0 0 0 0 0 1 6 5 16 22 19 11 10 11 10 10 12 14 13 13 11 11
0 1 1 1 0 0 0 0 0 6 31 8 0 0 0 0 0 0 0 0 0 0 0 0 0 1 4 4 7 9 14 16 12 11 11 8 8 7 10 8 8 10 8 10
0 0 0 0 0 0 0 0 0 9 0 0 0 0 0 0 0 0 0 3 1 0 0 1 2 7 6 7 15 14 10 14 11 10 8 6 9 7 9 8 4 1 1 2
CIN
-0 -0 -0 -0 -0 -0 -0 -0 -0 -0 -0 -0 -0 -0 -0 -0 -0 -0 -0 -0 -0 -0 -0 -0 -0 -0 -0 -0 -0 -344 -272 -264 -251 -241 -218 -185 -171 -150 -150 -144 -128 -119 -105 -96
-0 -0 -0 -0 -0 -0 -0 -0 -0 -0 -0 -0 -0 -0 -0 -0 -0 -0 -0 -0 -0 -0 -0 -0 -0 -0 -0 -0 -0 -308 -274 -271 -286 -229 -198 -186 -169 -126 -97 -70 -76 -90 -98 -81
-0 -0 -0 -0 -0 -0 -0 -0 -0 -0 -0 -0 -0 -0 -0 -0 -0 -0 -0 -0 -0 -0 -0 -0 -0 -0 -0 -0 -130 -404 -325 -261 -260 -241 -230 -286 -220 -175 -93 -41 -18 -64 -57 -51
-0 -0 -0 -0 -0 -0 -0 -0 -0 -0 -0 -0 -0 -0 -0 -0 -0 -0 -0 -0 -0 -0 -0 -0 -0 -0 -0 -0 -0 -93 -354 -322 -309 -264 -210 -202 -137 -140 -165 -117 -177 -190 -159 -130
-0 -0 -0 -0 -0 -0 -0 -0 -0 -0 -0 -0 -0 -0 -0 -0 -0 -0 -0 -0 -0 -0 -0 -0 -0 -0 -0 -0 -0 -0 -509 -408 -423 -353 -174 -174 -217 -210 -254 -225 -168 -145 -129 -108
-0 -0 -0 -0 -0 -0 -0 -0 -0 -0 -0 -0 -0 -0 -0 -0 -0 -0 -0 -0 -0 -0 -0 -0 -0 -0 -0 -0 -0 -161 -413 -425 -400 -353 -288 -198 -202 -210 -165 -144 -105 -121 -114 -105
-0 -0 -0 -0 -0 -0 -0 -0 -0 -0 -0 -0 -0 -0 -0 -0 -0 -0 -0 -0 -0 -0 -0 -0 -0 -0 -0 -0 -0 -357 -321 -353 -299 -252 -215 -159 -99 -93 -68 -75 -66 -78 -84 -101
-0 -0 -0 -0 -0 -0 -0 -0 -0 -0 -0 -0 -0 -0 -0 -0 -0 -0 -0 -0 -0 -0 -0 -0 -0 -0 -0 -0 -0 -0 -0 -0 -0 -0 -0 -0 -251 -159 -97 -69 -58 -65 -73 -88
-0 -0 -0 -0 -0 -0 -0 -0 -0 -0 -0 -0 -0 -0 -0 -0 -0 -0 -0 -0 -0 -0 -0 -0 -0 -0 -0 -0 -0 -0 -0 -0 -0 -0 -0 -0 -0 -0 -197 -154 -146 -112 -105 -95
-0 -5 -0 -0 -0 -0 -0 -0 -0 -0 -0 -0 -0 -0 -0 -0 -0 -0 -0 -0 -0 -0 -0 -0 -0 -0 -0 -0 -0 -0 -0 -0 -0 -0 -0 -0 -0 -0 -0 -0 -132 -165 -156 -154
-47 -16 -0 -0 -0 -0 -0 -0 -0 -0 -0 -0 -0 -0 -0 -0 -0 -0 -0 -0 -0 -0 -0 -0 -0 -0 -0 -0 -0 -0 -0 -0 -0 -0 -0 -0 -0 -0 -0 -0 -0 -0 -0 -0
-6 -60 -13 -0 -0 -0 -0 -0 -0 -1 -0 -0 -0 -0 -0 -0 -0 -0 -0 -0 -0 -0 -0 -0 -0 -0 -0 -0 -0 -0 -0 -0 -0 -0 -0 -0 -0 -0 -0 -0 -0 -0 -0 -0
-0 -1 -0 -0 -0 -0 -0 -0 -0 -0 -0 -0 -0 -0 -0 -0 -0 -0 -0 -0 -0 -0 -0 -0 -0 -0 -0 -0 -0 -0 -0 -0 -0 -0 -0 -0 -0 -0 -0 -0 -0 -0 -0 -0
-0 -0 -2 -0 -0 -0 -0 -0 -0 -0 -0 -0 -0 -0 -0 -0 -0 -0 -0 -0 -0 -0 -0 -0 -0 -0 -0 -0 -0 -0 -0 -0 -0 -0 -0 -0 -0 -0 -0 -0 -0 -0 -0 -0
-0 -0 -0 -0 -0 -0 -0 -0 -0 -0 -0 -0 -0 -0 -0 -0 -0 -0 -0 -0 -0 -0 -0 -0 -0 -0 -0 -0 -0 -0 -0 -0 -0 -0 -0 -0 -0 -0 -0 -0 -0 -0 -0 -0
-0 -0 -0 -0 -0 -0 -0 -0 -0 -0 -0 -0 -0 -0 -0 -0 -0 -0 -0 -0 -0 -0 -0 -0 -0 -0 -0 -0 -0 -0 -0 -0 -0 -0 -0 -0 -0 -0 -0 -0 -0 -0 -0 -0
-0 -0 -0 -0 -0 -0 -0 -0 -0 -0 -0 -0 -0 -0 -0 -0 -0 -0 -0 -0 -0 -0 -0 -0 -0 -0 -0 -0 -0 -0 -0 -0 -0 -0 -0 -0 -0 -0 -0 -0 -0 -0 -0 -0
-0 -0 -0 -0 -0 -0 -0 -0 -0 -0 -0 -0 -0 -0 -0 -0 -0 -0 -0 -0 -0 -0 -0 -0 -0 -0 -0 -0 -0 -0 -0 -0 -0 -0 -0 -0 -0 -0 -0 -0 -0 -0 -0 -0
-0 -0 -0 -0 -0 -0 -0 -0 -0 -0 -0 -0 -13 -7 -9 -0 -0 -0 -0 -0 -0 -0 -0 -0 -0 -0 -0 -0 -0 -0 -0 -0 -0 -0 -0 -0 -0 -0 -0 -0 -0 -0 -0 -0
-0 -0 -0 -0 -0 -0 -0 -0 -0 -0 -0 -0 -0 -0 -0 -6 -0 -0 -0 -0 -0 -0 -0 -0 -0 -0 -0 -0 -0 -0 -0 -0 -0 -0 -0 -0 -0 -0 -0 -0 -0 -0 -0 -0
-0 -0 -0 -0 -0 -0 -0 -0 -7 -0 -0 -8 -9 -8 -2 -0 -0 -0 -0 -0 -0 -0 -0 -0 -0 -0 -0 -0 -0 -0 -0 -0 -0 -0 -0 -0 -0 -0 -0 -0 -0 -0 -0 -0
-0 -0 -0 -0 -0 -0 -0 -0 -0 -10 -17 -17 -9 -3 -5 -0 -0 -0 -0 -0 -0 -0 -0 -0 -0 -0 -0 -0 -0 -0 -0 -0 -0 -0 -0 -0 -0 -0 -0 -0 -0 -0 -0 -0
-0 -0 -0 -0 -0 -0 -0 -5 -6 -14 -13 -14 -4 -1 -8 -13 -0 -0 -0 -0 -0 -0 -0 -0 -0 -0 -0 -0 -0 -0 -0 -0 -0 -0 -0 -0 -0 -0 -0 -0 -0 -0 -0 -0
-0 -0 -0 -0 -0 -0 -10 -8 -8 -4 -7 -9 -6 -16 -0 -0 -0 -0 -0 -0 -0 -0 -0 -0 -0 -0 -0 -0 -0 -0 -0 -0 -0 -0 -0 -0 -0 -0 -0 -0 -0 -0 -0 -0
-0 -0 -0 -0 -0 -0 -0 -0 -0 -9 -13 -28 -0 -0 -0 -0 -0 -0 -0 -0 -0 -0 -0 -0 -0 -0 -0 -0 -0 -0 -0 -0 -0 -0 -0 -0 -0 -0 -0 -0 -0 -0 -0 -0
-0 -0 -0 -0 -0 -0 -0 -0 -0 -19 -10 -0 -0 -0 -0 -0 -0 -0 -0 -0 -0 -0 -0 -0 -0 -0 -0 -0 -0 -0 -0 -0 -0 -0 -0 -0 -0 -0 -0 -0 -0 -0 -0 -0
Wind_Speed
9 9 16 18 11 5 7 5 8 3 4 1 6 5 7 1 6 5 5 6 9 8 7 8 7 9 11 11 11 14 13 13 11 10 10 9 12 9 8 8 10 11 10 9
9 12 9 9 7 4 4 3 5 2 3 5 3 6 7 7 4 2 6 8 10 11 10 7 8 4 2 4 8 10 13 13 13 10 8 4 8 6 6 6 7 7 8 8
12 5 10 7 6 7 4 6 5 6 1 3 1 4 4 2 2 1 4 6 7 11 14 15 13 10 8 7 7 10 11 10 10 11 8 6 6 4 5 5 4 3 4 5
7 5 12 7 8 7 6 10 10 8 3 5 2 2 3 3 4 1 8 11 12 12 11 11 14 12 10 11 10 8 7 6 6 8 8 10 6 5 3 5 4 4 5 5
5 9 10 7 9 10 5 5 9 5 7 4 4 4 3 2 5 4 10 11 10 10 10 13 13 13 11 8 5 2 3 6 8 8 6 6 7 4 6 5 7 6 5 5
5 1 3 3 6 10 10 5 4 3 3 7 5 6 4 4 1 1 6 8 10 11 12 13 13 12 12 10 7 6 9 8 8 9 8 9 11 11 8 7 6 6 5 6
3 2 1 2 5 3 4 5 4 5 6 4 2 5 3 2 2 5 8 10 12 12 12 12 13 13 13 13 11 9 11 11 8 7 7 7 7 8 8 9 7 8 7 7
9 7 2 2 4 5 4 4 4 5 4 2 2 5 5 6 8 8 7 6 8 10 10 11 12 10 10 11 11 11 10 10 8 7 6 5 5 1 2 5 5 7 7 7
7 5 1 4 2 2 5 5 3 5 2 4 4 2 5 8 8 8 8 11 10 10 9 8 7 8 8 8 8 8 7 7 7 6 4 3 2 3 4 5 6 6 7 7
5 6 2 3 1 11 1 8 4 2 5 7 5 5 5 13 12 6 6 10 11 10 9 8 7 7 6 8 8 10 10 10 9 9 8 6 5 6 6 7 9 9 8 8
4 2 3 3 4 3 5 4 4 2 2 4 5 4 2 11 10 4 4 9 10 11 9 7 7 7 7 9 10 10 11 10 10 10 9 9 8 6 5 5 7 8 9 10
2 4 4 3 4 4 1 2 4 4 6 3 3 5 3 8 5 1 6 9 11 8 6 5 6 7 7 8 8 8 8 8 8 7 8 8 8 8 7 7 6 6 9 8
6 2 6 4 4 2 1 2 3 6 2 7 5 2 3 6 7 3 9 11 8 8 7 7 7 8 8 8 8 8 9 9 9 9 9 9 9 10 11 11 10 11 12 12
5 3 2 5 4 3 4 6 6 4 3 4 10 11 7 8 11 15 16 9 4 5 6 6 7 7 7 8 9 10 11 10 11 11 11 12 11 11 12 12 13 14 14 16
3 4 2 4 5 2 3 6 9 11 10 8 9 9 13 15 16 15 12 7 3 0 3 4 6 8 10 11 11 11 11 11 12 13 13 13 14 14 15 16 16 17 17 17
3 4 2 2 2 3 8 11 12 14 14 16 17 18 15 14 11 11 4 3 3 3 4 5 7 10 11 12 12 11 12 13 13 14 15 16 16 16 17 17 17 17 18 18
3 6 3 1 2 4 11 11 14 8 9 9 10 8 8 7 5 4 3 5 8 7 6 8 10 11 11 12 11 13 14 13 14 16 17 18 17 18 18 18 18 18 18 18
7 6 2 3 3 5 4 2 2 7 8 11 12 9 7 6 3 5 5 6 8 6 8 10 12 13 14 12 13 14 14 15 17 18 18 18 17 18 18 18 18 18 16 17
1 5 4 3 5 8 2 1 3 5 4 5 11 7 4 2 5 9 4 5 5 7 9 11 12 15 14 15 15 15 17 17 18 18 18 18 18 18 17 18 21 19 17 14
5 3 3 2 3 4 2 3 2 3 7 7 2 2 4 4 9 6 5 4 7 10 10 12 15 14 15 15 15 17 18 18 19 18 19 18 17 19 20 16 17 15 11 15
5 3 7 5 4 5 2 2 4 5 3 5 4 8 8 9 8 10 9 10 9 10 12 13 14 14 15 15 16 19 19 19 18 18 18 18 19 18 16 15 14 13 15 13
7 8 5 6 5 6 4 5 4 5 3 6 7 7 7 10 11 11 9 11 12 14 15 15 14 15 15 16 16 19 19 18 18 16 17 16 15 13 11 15 14 15 14 14
5 2 4 6 1 2 1 2 6 5 10 12 9 8 9 11 10 10 10 13 13 15 15 14 15 17 16 16 16 19 19 19 17 17 17 15 15 14 13 14 14 12 12 10
3 3 3 3 3 3 6 7 8 8 9 8 7 9 7 8 10 13 13 14 14 14 14 15 17 18 19 17 17 17 17 16 15 17 16 13 13 14 13 11 10 10 10 10
2 4 5 4 5 7 3 4 7 7 5 6 2 3 6 9 13 14 14 15 14 14 15 15 17 17 19 18 17 17 17 14 15 14 13 13 12 13 13 12 10 10 12 11
4 4 4 1 2 3 7 7 8 7 4 6 7 10 11 11 14 15 14 13 14 15 16 16 18 18 19 17 17 15 13 12 13 14 11 11 11 11 10 11 13 16 22 24
Wind_Direction
173 187 197 193 194 193 173 189 197 184 156 237 201 254 270 256 244 252 287 323 327 293 288 288 277 236 236 237 218 212 202 205 190 190 193 207 214 212 216 220 217 216 222 225
157 202 194 165 172 157 163 202 230 256 249 211 228 248 282 283 271 305 336 344 347 339 341 343 330 302 264 248 239 238 226 202 198 195 197 204 198 210 219 212 218 222 228 223
171 186 159 157 156 175 189 220 232 248 76 220 242 235 229 222 258 145 23 3 7 355 339 337 341 336 334 279 254 230 222 221 213 202 168 129 126 125 174 179 157 150 192 190
180 123 160 157 179 184 210 216 231 237 202 251 289 266 238 233 256 126 21 10 4 2 358 351 349 355 345 322 313 284 247 199 184 194 183 184 180 178 158 148 126 159 154 152
147 173 161 180 197 184 220 172 211 226 197 188 169 240 198 270 218 45 14 10 19 20 21 19 7 356 0 1 1 359 149 143 149 157 176 155 143 128 129 136 152 166 164 170
133 190 175 150 146 184 146 127 93 110 158 232 190 231 183 171 169 58 32 37 32 36 43 42 36 31 30 31 49 98 115 115 128 130 146 146 141 144 153 157 175 182 183 184
157 175 41 163 157 147 166 168 186 211 214 253 73 232 293 128 62 103 84 63 56 52 48 43 42 41 40 43 51 77 97 100 103 120 128 132 142 154 166 174 191 185 193 200
187 183 217 131 218 194 185 212 213 221 219 233 157 234 113 110 119 113 93 72 47 35 31 42 52 49 50 50 55 64 65 67 63 54 52 40 27 322 248 213 218 218 219 218
168 162 80 61 128 221 149 198 51 120 79 248 239 165 136 153 130 116 74 47 25 13 8 3 27 64 65 64 60 53 51 55 50 43 24 5 317 281 276 271 263 264 262 245
162 139 81 120 240 54 337 129 157 144 217 241 206 251 250 184 169 144 74 28 9 356 348 357 351 343 17 36 38 35 31 37 27 18 10 8 350 323 299 288 280 266 257 260
130 175 132 214 20 146 149 161 73 79 251 253 266 232 328 188 167 142 25 359 349 338 338 342 356 25 46 56 48 41 35 30 24 15 6 0 357 356 315 280 266 254 269 267
77 109 121 87 9 270 30 140 179 207 192 230 295 268 352 172 153 322 335 346 349 338 350 30 58 64 60 47 36 37 24 16 10 355 341 336 324 322 305 297 307 291 274 268
171 104 143 157 165 106 148 112 102 97 63 218 238 220 129 218 257 278 329 348 12 36 58 53 50 45 32 22 12 1 352 350 345 337 331 323 316 318 313 304 298 292 286 277
93 102 212 247 78 128 172 167 160 148 185 236 234 267 266 274 281 302 323 342 6 41 40 33 34 23 3 352 345 342 339 339 333 326 320 316 314 309 301 294 287 281 277 276
65 110 114 110 122 163 219 221 213 233 244 241 279 269 279 284 288 294 315 298 207 354 14 11 355 347 339 337 334 331 327 326 324 314 310 306 301 297 292 287 284 282 276 272
26 109 110 114 141 238 267 254 245 243 249 254 264 277 281 289 287 292 296 234 261 293 308 317 326 329 328 326 322 325 319 318 317 307 301 301 298 294 290 286 283 281 280 279
97 137 133 197 53 334 274 264 231 232 231 249 257 266 291 282 253 263 272 268 281 288 299 314 322 319 318 318 317 313 314 313 305 300 299 298 297 293 291 289 286 283 283 285
131 117 97 127 159 236 62 177 337 224 253 224 257 256 257 265 252 268 277 288 281 274 304 318 320 320 321 317 309 312 308 306 303 300 300 300 298 294 292 288 286 284 281 279
48 127 127 207 209 321 249 108 173 210 277 271 249 274 241 256 287 268 281 296 285 311 311 311 317 317 312 309 312 308 305 303 302 300 301 301 300 296 295 293 293 289 283 276
100 54 166 156 227 245 103 124 143 175 255 18 265 274 266 248 271 305 328 292 294 306 309 316 317 310 303 308 310 304 302 303 301 304 304 300 300 301 294 292 284 281 282 282
156 145 209 196 248 270 178 166 187 241 36 337 323 316 306 285 304 313 298 289 297 302 309 314 305 304 306 309 307 301 303 301 306 305 299 298 301 294 280 283 282 284 279 277
163 164 186 197 222 246 154 162 237 24 324 293 309 300 295 300 297 298 302 302 310 311 313 313 308 307 309 310 308 303 301 307 308 299 299 296 291 282 280 279 278 275 273 270
187 216 182 204 226 101 181 9 309 325 308 299 293 301 297 297 300 306 304 310 314 311 314 314 313 311 310 312 310 303 307 311 305 303 298 289 285 284 281 277 277 276 268 265
166 171 223 210 125 242 256 288 269 298 304 294 295 300 300 299 308 309 314 317 314 316 315 314 314 310 310 313 313 306 305 304 303 297 291 291 289 291 285 278 272 270 268 264
31 176 184 253 287 298 305 307 324 311 309 305 348 347 335 323 316 317 314 314 316 315 317 316 313 310 312 314 310 309 307 306 297 294 296 294 290 288 288 279 273 266 262 255
191 179 202 207 53 294 304 329 323 318 16 25 356 338 333 324 318 317 314 315 314 316 316 315 313 313 311 314 311 309 310 304 302 301 300 293 294 290 284 284 289 261 255 259